Wheaton NDB, MN

8:15 AM CDT on April 30, 2017 (GMT -0500)
Wheaton Municipal

Weather History for KETH - November, 2011

Change the Weather History Date:

Monday, November 21, 2011

  Actual Average Record
Temperature  
Mean Temperature 16 °F -  
Max Temperature 28 °F 36 °F 60 °F (1960)
Min Temperature 5 °F 19 °F -4 °F (1978)
Degree Days  
Heating Degree Days 48    
Moisture  
Dew Point 13 °F    
Average Humidity 87    
Maximum Humidity 100    
Minimum Humidity 74    
Precipitation  
Precipitation 0.00 in - - ()
Sea Level Pressure  
Sea Level Pressure 30.21 in    
Wind  
Wind Speed 9 mph (SE)    
Max Wind Speed 13 mph    
Max Gust Speed -    
Visibility 10 miles    
Events      
Averages and records for this station are not official NWS values.
T = Trace of Precipitation, MM = Missing Value Source: NWS Daily Summary

Daily Weather History Graph

Daily Weather History Graph

Search for Another Location

Airport or City:

Trip Planner

Search our weather history database for the weather conditions in past years. The results will help you decide how hot, cold, wet, or windy it might be!

Date:

Astronomy

Nov. 21, 2011 Rise Set
Actual Time 7:33 AM CST 4:49 PM CST
Civil Twilight 7:01 AM CST 5:22 PM CST
Nautical Twilight 6:24 AM CST 5:59 PM CST
Astronomical Twilight 5:49 AM CST 6:34 PM CST
Moon 3:02 AM CST (11/21) 2:21 PM CST (11/21)
Length of Visible Light 10h 21m
Length of Day
9h 15m
Waning Crescent, 17% of the Moon is Illuminated
Nov 21
Waning Crescent
Nov 25
New
Dec 2
First Quarter
Dec 10
Full
Dec 17
Last Quarter

Hourly Weather History & Observations

Time (CST) Temp. Windchill Dew Point Humidity Pressure Visibility Wind Dir Wind Speed Gust Speed Precip Events Conditions
12:15 AM 8.6 °F -7.0 °F 6.8 °F 92% 30.24 in 10.0 mi SE 12.7 mph - N/A   Clear
12:35 AM 8.6 °F -6.3 °F 6.8 °F 92% 30.24 in 10.0 mi SE 11.5 mph - N/A   Clear
12:55 AM 8.6 °F -6.3 °F 6.8 °F 92% 30.23 in 10.0 mi SE 11.5 mph - N/A   Clear
1:15 AM 10.4 °F -4.1 °F 6.8 °F 85% 30.23 in 10.0 mi SE 11.5 mph - N/A   Clear
1:55 AM 8.6 °F -5.5 °F 6.8 °F 92% 30.22 in 10.0 mi SSE 10.4 mph - N/A   Clear
2:15 AM 8.6 °F -2.6 °F 6.8 °F 92% 30.23 in 10.0 mi SE 6.9 mph - N/A   Clear
2:35 AM 8.6 °F -3.7 °F 5.0 °F 85% 30.23 in 10.0 mi ESE 8.1 mph - N/A   Clear
2:55 AM 8.6 °F -6.3 °F 5.0 °F 85% 30.21 in 10.0 mi SE 11.5 mph - N/A   Clear
3:16 AM 6.8 °F -7.8 °F 5.0 °F 92% 30.22 in 10.0 mi SE 10.4 mph - N/A   Clear
3:35 AM 8.6 °F -7.0 °F 6.8 °F 92% 30.21 in 10.0 mi SE 12.7 mph - N/A   Clear
3:55 AM 8.6 °F -5.5 °F 6.8 °F 92% 30.21 in 10.0 mi SE 10.4 mph - N/A   Clear
4:16 AM 8.6 °F -5.5 °F 6.8 °F 92% 30.22 in 10.0 mi SE 10.4 mph - N/A   Clear
4:35 AM 8.6 °F -7.0 °F 6.8 °F 92% 30.21 in 10.0 mi SE 12.7 mph - N/A   Clear
4:55 AM 8.6 °F -6.3 °F 6.8 °F 92% 30.22 in 10.0 mi SE 11.5 mph - N/A   Clear
5:15 AM 6.8 °F -6.9 °F 5.0 °F 92% 30.21 in 10.0 mi SE 9.2 mph - N/A   Clear
5:35 AM 6.8 °F -4.8 °F 5.0 °F 92% 30.22 in 10.0 mi SE 6.9 mph - N/A   Clear
5:55 AM 6.8 °F -5.9 °F 3.2 °F 85% 30.21 in 10.0 mi SE 8.1 mph - N/A   Clear
6:15 AM 6.8 °F -6.9 °F 3.2 °F 85% 30.21 in 10.0 mi SE 9.2 mph - N/A   Clear
6:35 AM 6.8 °F -5.9 °F 3.2 °F 85% 30.22 in 10.0 mi SE 8.1 mph - N/A   Clear
6:56 AM 6.8 °F -5.9 °F 5.0 °F 92% 30.22 in 10.0 mi SE 8.1 mph - N/A   Clear
7:15 AM 6.8 °F -3.5 °F 3.2 °F 85% 30.23 in 10.0 mi East 5.8 mph - N/A   Clear
7:35 AM 6.8 °F -3.5 °F 3.2 °F 85% 30.23 in 10.0 mi East 5.8 mph - N/A   Clear
7:55 AM 6.8 °F -0.1 °F 3.2 °F 85% 30.24 in 10.0 mi East 3.5 mph - N/A   Clear
8:15 AM 5.0 °F -2.1 °F 1.4 °F 85% 30.24 in 10.0 mi ESE 3.5 mph - N/A   Clear
8:55 AM 10.4 °F -0.4 °F 8.6 °F 92% 30.25 in 10.0 mi SE 6.9 mph - N/A   Clear
9:15 AM 12.2 °F 1.7 °F 10.4 °F 92% 30.24 in 10.0 mi SE 6.9 mph - N/A   Clear
9:36 AM 15.8 °F 7.2 °F 12.2 °F 86% 30.24 in 10.0 mi SE 5.8 mph - N/A   Clear
9:55 AM 17.6 °F 9.3 °F 14.0 °F 86% 30.25 in 10.0 mi SSE 5.8 mph - N/A   Clear
10:15 AM 19.4 °F 12.8 °F 15.8 °F 86% 30.25 in 10.0 mi SSE 4.6 mph - N/A   Clear
10:36 AM 19.4 °F 11.5 °F 15.8 °F 86% 30.24 in 10.0 mi SSE 5.8 mph - N/A   Clear
10:56 AM 21.2 °F - 17.6 °F 86% 30.24 in 10.0 mi Calm Calm - N/A   Clear
11:15 AM 23.0 °F 17.0 °F 17.6 °F 80% 30.23 in 10.0 mi SE 4.6 mph - N/A   Clear
11:35 AM 24.8 °F 19.1 °F 19.4 °F 80% 30.22 in 10.0 mi SE 4.6 mph - N/A   Clear
12:15 PM 26.6 °F 21.2 °F 19.4 °F 74% 30.21 in 10.0 mi SE 4.6 mph - N/A   Clear
12:35 PM 26.6 °F 21.2 °F 21.2 °F 80% 30.20 in 10.0 mi SE 4.6 mph - N/A   Clear
12:56 PM 28.4 °F 20.4 °F 21.2 °F 74% 30.20 in 10.0 mi SE 8.1 mph - N/A   Clear
1:16 PM 28.4 °F 22.2 °F 21.2 °F 74% 30.19 in 10.0 mi SE 5.8 mph - N/A   Clear
1:36 PM 28.4 °F 22.2 °F 21.2 °F 74% 30.19 in 10.0 mi SE 5.8 mph - N/A   Clear
1:56 PM 28.4 °F 21.2 °F 21.2 °F 74% 30.18 in 10.0 mi SE 6.9 mph - N/A   Clear
2:15 PM 28.4 °F 21.2 °F 23.0 °F 80% 30.18 in 10.0 mi SSE 6.9 mph - N/A   Clear
2:35 PM 28.4 °F 22.2 °F 23.0 °F 80% 30.18 in 10.0 mi SE 5.8 mph - N/A   Clear
2:55 PM 28.4 °F 22.2 °F 23.0 °F 80% 30.17 in 10.0 mi SE 5.8 mph - N/A   Clear
3:16 PM 28.4 °F 20.4 °F 23.0 °F 80% 30.17 in 10.0 mi SE 8.1 mph - N/A   Clear
3:35 PM 28.4 °F 20.4 °F 23.0 °F 80% 30.18 in 10.0 mi SE 8.1 mph - N/A   Clear
3:55 PM 28.4 °F 20.4 °F 23.0 °F 80% 30.18 in 10.0 mi ESE 8.1 mph - N/A   Clear
4:55 PM 24.8 °F 16.9 °F 21.2 °F 86% 30.17 in 10.0 mi East 6.9 mph - N/A   Clear
5:15 PM 23.0 °F 13.1 °F 19.4 °F 86% 30.16 in 10.0 mi East 9.2 mph - N/A   Clear
5:35 PM 21.2 °F 11.7 °F 19.4 °F 93% 30.16 in 10.0 mi ESE 8.1 mph - N/A   Clear
5:55 PM 21.2 °F 11.7 °F 19.4 °F 93% 30.16 in 10.0 mi ESE 8.1 mph - N/A   Clear
6:15 PM 21.2 °F 11.7 °F 19.4 °F 93% 30.16 in 10.0 mi ESE 8.1 mph - N/A   Clear
6:35 PM 19.4 °F 7.9 °F 17.6 °F 93% 30.15 in 10.0 mi ESE 10.4 mph - N/A   Clear
6:55 PM 19.4 °F 8.6 °F 17.6 °F 93% 30.16 in 7.0 mi ESE 9.2 mph - N/A   Clear
7:15 PM 19.4 °F 7.2 °F 19.4 °F 100% 30.16 in 7.0 mi SE 11.5 mph - N/A   Clear
7:35 PM 21.2 °F 10.1 °F 19.4 °F 93% 30.17 in 7.0 mi SE 10.4 mph - N/A   Clear
8:15 PM 19.4 °F 7.9 °F 17.6 °F 93% 30.17 in 7.0 mi ESE 10.4 mph - N/A   Clear
8:35 PM 19.4 °F 7.9 °F 17.6 °F 93% 30.17 in 7.0 mi ESE 10.4 mph - N/A   Clear
8:56 PM 19.4 °F 9.5 °F 17.6 °F 93% 30.16 in 7.0 mi ESE 8.1 mph - N/A   Clear
9:35 PM 19.4 °F 7.9 °F 17.6 °F 93% 30.15 in 5.0 mi ESE 10.4 mph - N/A   Clear
9:56 PM 19.4 °F 6.6 °F 19.4 °F 100% 30.15 in 5.0 mi SE 12.7 mph - N/A   Clear
10:15 PM 21.2 °F 9.5 °F 19.4 °F 93% 30.15 in 5.0 mi SE 11.5 mph - N/A   Clear
10:35 PM 21.2 °F 8.9 °F 21.2 °F 100% 30.15 in 5.0 mi SE 12.7 mph - N/A   Clear
11:15 PM 21.2 °F 9.5 °F 21.2 °F 100% 30.16 in 5.0 mi SE 11.5 mph - N/A   Clear
11:35 PM 23.0 °F 11.7 °F 21.2 °F 93% 30.16 in 5.0 mi SE 11.5 mph - N/A   Mostly Cloudy
11:55 PM 26.6 °F 14.7 °F 24.8 °F 93% 30.16 in 5.0 mi SE 15.0 mph - N/A   Overcast